カタログに戻る

FENGYUN 1C DEB

運用中SSO
NORAD 38819·DEBRIS·🇨🇳 China

打ち上げ May 10, 1999 から Taiyuan Satellite Launch Center

Loading…

次のパス (今後24時間)

TLE

経年Source: Space-Track

元期: Sep 4, 2026, 06:08 UTC

1 38819U 99025EVK 26247.25619169  .00000373  00000-0  18954-3 0  9997
2 38819  98.6353 238.3116 0080157 147.7790 225.8355 14.19828687672453

AllMySatでFENGYUN 1C DEBをリアルタイム追跡

Download on the App Store